Hourly Data Report for August 24, 2021

TORONTO CITY
ONTARIO
Current Station Operator: ECCC - MSC

43°40'00.000" N
79°24'00.000" W
112.50 m
6158355
71508
XTO

Download Data

Hourly Data (August 2021)
Hourly Data Report for August 24, 2021
TIME
LST
Temp Definition
°C
Dew Point Definition
°C
Rel Hum Definition
%
Precip. Amount Definition
mm

Wind Dir Definition
10's deg

Wind Spd Definition
km/h
Visibility Definition
km
Stn Press Definition
kPa
Hmdx Definition


Wind Chill Definition


Weather Definition


00:00 23.4 18.4 74 0.0       100.02 30   LegendNANA
01:00 22.0 18.9 83 0.0       100.02 29   LegendNANA
02:00 21.7 18.7 83 0.0       100.04 28   LegendNANA
03:00 21.0 18.8 87 0.0       100.04 28   LegendNANA
04:00 20.4 18.5 89 0.0       100.04 27   LegendNANA
05:00 20.2 18.3 89 0.0       100.09 26   LegendNANA
06:00 20.2 18.3 89 0.0       100.14 26   LegendNANA
07:00 22.0 18.6 81 0.0       100.19 28   LegendNANA
08:00 24.0 18.4 71 0.0       100.22 30   LegendNANA
09:00 25.7 18.9 66 0.0       100.20 32   LegendNANA
10:00 26.6 18.4 61 0.0       100.22 33   LegendNANA
11:00 26.6 18.9 63 0.0       100.22 33   LegendNANA
12:00 27.9 19.2 59 0.0       100.22 35   LegendNANA
13:00 28.8 16.9 49 0.0       100.24 34   LegendNANA
14:00 30.5 18.8 50 0.0       100.19 37   LegendNANA
15:00 30.6 19.0 50 0.0       100.12 37   LegendNANA
16:00 30.2 19.6 53 0.0       100.08 37   LegendNANA
17:00 29.7 19.3 54 0.0       100.08 37   LegendNANA
18:00 29.1 20.3 59 0.0       100.07 37   LegendNANA
19:00 28.3 21.0 65 0.0       100.09 37   LegendNANA
20:00 26.3 20.8 72 0.0       100.18 35   LegendNANA
21:00 26.0 19.9 69 0.0       100.21 33   LegendNANA
22:00 26.5 18.7 62 0.0       100.21 33   LegendNANA
23:00 25.0 19.1 69 0.0       100.29 32   LegendNANA

Notes on Data Quality.

Legend

  • E = Estimated
  • M = Missing
  • NA = Not Available*
  • [empty] = Indicates an unobserved value
Date modified: